Time,TemperatureF,DewpointF,PressureIn,WindDirection,WindDirectionDegrees,WindSpeedMPH,WindSpeedGustMPH,Humidity,HourlyPrecipIn,Conditions,Clouds,dailyrainin,SoftwareType,DateUTC
2013-03-07 00:00:00,41.3,25.9,29.71,NNW,329,0.0,4.0,54,0.00,,---,0.00,VWS V14.00,2013-03-07 07:00:00,
2013-03-07 00:05:00,41.1,26.2,29.71,NNW,329,3.0,4.0,55,0.00,,---,0.00,VWS V14.00,2013-03-07 07:05:00,
2013-03-07 00:10:00,41.5,26.1,29.71,NW,304,5.0,7.0,54,0.00,,---,0.00,VWS V14.00,2013-03-07 07:10:00,
2013-03-07 00:15:00,41.4,26.0,29.71,WNW,295,0.0,7.0,54,0.00,,---,0.00,VWS V14.00,2013-03-07 07:15:00,
2013-03-07 00:20:00,40.3,25.9,29.70,NW,319,4.0,5.0,56,0.00,,---,0.00,VWS V14.00,2013-03-07 07:20:00,
2013-03-07 00:25:00,40.8,26.3,29.70,North,360,0.0,5.0,56,0.00,,---,0.00,VWS V14.00,2013-03-07 07:25:00,
2013-03-07 00:30:00,41.2,25.8,29.70,North,360,4.0,4.0,54,0.00,,---,0.00,VWS V14.00,2013-03-07 07:30:00,
2013-03-07 00:35:00,41.5,25.7,29.71,NNW,343,2.0,2.0,53,0.00,,---,0.00,VWS V14.00,2013-03-07 07:35:00,
2013-03-07 00:41:00,40.9,26.4,29.71,NNW,343,0.0,2.0,56,0.00,,---,0.00,VWS V14.00,2013-03-07 07:41:00,
2013-03-07 00:46:00,40.7,24.9,29.70,NNW,343,0.0,2.0,53,0.00,,---,0.00,VWS V14.00,2013-03-07 07:46:00,
2013-03-07 00:51:00,40.5,24.7,29.71,NNW,343,0.0,2.0,53,0.00,,---,0.00,VWS V14.00,2013-03-07 07:51:00,
2013-03-07 00:56:00,40.5,24.7,29.71,NNW,343,0.0,0.0,53,0.00,,---,0.00,VWS V14.00,2013-03-07 07:56:00,
2013-03-07 01:01:00,40.2,24.9,29.71,NNW,343,2.0,4.0,54,0.00,,---,0.00,VWS V14.00,2013-03-07 08:01:00,
2013-03-07 01:07:00,40.5,24.7,29.70,NNW,342,4.0,5.0,53,0.00,,---,0.00,VWS V14.00,2013-03-07 08:07:00,
2013-03-07 01:12:00,41.0,24.7,29.70,NW,326,2.0,5.0,52,0.00,,---,0.00,VWS V14.00,2013-03-07 08:12:00,
2013-03-07 01:17:00,40.8,24.5,29.70,NW,321,0.0,4.0,52,0.00,,---,0.00,VWS V14.00,2013-03-07 08:17:00,
2013-03-07 01:22:00,41.1,24.8,29.70,NW,321,0.0,4.0,52,0.00,,---,0.00,VWS V14.00,2013-03-07 08:22:00,
2013-03-07 01:27:00,40.9,24.6,29.71,NW,321,0.0,1.0,52,0.00,,---,0.00,VWS V14.00,2013-03-07 08:27:00,
2013-03-07 01:32:00,40.2,24.9,29.71,NW,321,1.0,3.0,54,0.00,,---,0.00,VWS V14.00,2013-03-07 08:32:00,
2013-03-07 01:38:00,39.8,25.0,29.71,NW,321,0.0,0.0,55,0.00,,---,0.00,VWS V14.00,2013-03-07 08:38:00,
2013-03-07 01:43:00,39.1,24.7,29.70,NW,322,4.0,4.0,56,0.00,,---,0.00,VWS V14.00,2013-03-07 08:43:00,
2013-03-07 01:48:00,39.5,25.1,29.70,WSW,252,2.0,4.0,56,0.00,,---,0.00,VWS V14.00,2013-03-07 08:48:00,
2013-03-07 01:53:00,40.0,25.1,29.70,West,281,0.0,6.0,55,0.00,,---,0.00,VWS V14.00,2013-03-07 08:53:00,
2013-03-07 01:58:00,39.1,25.2,29.71,SSE,166,2.0,4.0,57,0.00,,---,0.00,VWS V14.00,2013-03-07 08:58:00,
2013-03-07 02:03:00,38.7,24.8,29.70,South,171,2.0,4.0,57,0.00,,---,0.00,VWS V14.00,2013-03-07 09:03:00,
2013-03-07 02:09:00,39.6,25.2,29.70,South,175,2.0,2.0,56,0.00,,---,0.00,VWS V14.00,2013-03-07 09:09:00,
2013-03-07 02:14:00,39.6,25.2,29.70,South,177,0.0,2.0,56,0.00,,---,0.00,VWS V14.00,2013-03-07 09:14:00,
2013-03-07 02:19:00,39.8,25.0,29.69,South,178,0.0,2.0,55,0.00,,---,0.00,VWS V14.00,2013-03-07 09:19:00,
2013-03-07 02:24:00,40.2,24.9,29.69,South,178,0.0,4.0,54,0.00,,---,0.00,VWS V14.00,2013-03-07 09:24:00,
2013-03-07 02:29:00,40.3,25.0,29.69,SW,224,4.0,6.0,54,0.00,,---,0.00,VWS V14.00,2013-03-07 09:29:00,
2013-03-07 02:35:00,39.8,25.4,29.69,SW,228,0.0,6.0,56,0.00,,---,0.00,VWS V14.00,2013-03-07 09:35:00,
2013-03-07 02:40:00,38.4,24.9,29.70,SW,228,2.0,4.0,58,0.00,,---,0.00,VWS V14.00,2013-03-07 09:40:00,
2013-03-07 02:45:00,39.2,25.3,29.69,SW,229,3.0,4.0,57,0.00,,---,0.00,VWS V14.00,2013-03-07 09:45:00,
2013-03-07 02:50:00,40.2,25.3,29.69,SW,219,4.0,5.0,55,0.00,,---,0.00,VWS V14.00,2013-03-07 09:50:00,
2013-03-07 02:55:00,40.3,25.0,29.69,SW,219,0.0,5.0,54,0.00,,---,0.00,VWS V14.00,2013-03-07 09:55:00,
2013-03-07 03:00:00,40.5,24.7,29.69,SW,219,0.0,1.0,53,0.00,,---,0.00,VWS V14.00,2013-03-07 10:00:00,
2013-03-07 03:05:00,40.3,24.5,29.69,SW,219,2.0,3.0,53,0.00,,---,0.00,VWS V14.00,2013-03-07 10:05:00,
2013-03-07 03:10:00,39.3,24.5,29.69,SW,219,0.0,2.0,55,0.00,,---,0.00,VWS V14.00,2013-03-07 10:10:00,
2013-03-07 03:15:00,38.9,24.6,29.69,SSW,199,5.0,7.0,56,0.00,,---,0.00,VWS V14.00,2013-03-07 10:15:00,
2013-03-07 03:21:00,38.8,24.9,29.69,West,261,0.0,7.0,57,0.00,,---,0.00,VWS V14.00,2013-03-07 10:21:00,
2013-03-07 03:26:00,38.0,24.5,29.69,SSW,208,4.0,5.0,58,0.00,,---,0.00,VWS V14.00,2013-03-07 10:26:00,
2013-03-07 03:31:00,38.3,24.8,29.69,SSW,207,0.0,5.0,58,0.00,,---,0.00,VWS V14.00,2013-03-07 10:31:00,
2013-03-07 03:36:00,38.7,25.2,29.69,SW,221,0.0,0.0,58,0.00,,---,0.00,VWS V14.00,2013-03-07 10:36:00,
2013-03-07 03:41:00,39.0,25.1,29.69,SW,222,0.0,2.0,57,0.00,,---,0.00,VWS V14.00,2013-03-07 10:41:00,
2013-03-07 03:46:00,39.6,24.8,29.69,SW,222,0.0,0.0,55,0.00,,---,0.00,VWS V14.00,2013-03-07 10:46:00,
2013-03-07 03:52:00,39.9,25.5,29.69,WSW,257,6.0,7.0,56,0.00,,---,0.00,VWS V14.00,2013-03-07 10:52:00,
2013-03-07 03:57:00,39.5,24.7,29.69,West,265,4.0,5.0,55,0.00,,---,0.00,VWS V14.00,2013-03-07 10:57:00,
2013-03-07 04:02:00,39.5,25.1,29.70,SW,232,0.0,5.0,56,0.00,,---,0.00,VWS V14.00,2013-03-07 11:02:00,
2013-03-07 04:07:00,38.8,24.9,29.70,SW,234,1.0,1.0,57,0.00,,---,0.00,VWS V14.00,2013-03-07 11:07:00,
2013-03-07 04:12:00,39.8,25.8,29.70,SW,234,0.0,2.0,57,0.00,,---,0.00,VWS V14.00,2013-03-07 11:12:00,
2013-03-07 04:17:00,39.2,25.7,29.70,NW,309,3.0,6.0,58,0.00,,---,0.00,VWS V14.00,2013-03-07 11:17:00,
2013-03-07 04:22:00,39.6,26.1,29.70,West,281,1.0,6.0,58,0.00,,---,0.00,VWS V14.00,2013-03-07 11:22:00,
2013-03-07 04:28:00,39.2,25.7,29.70,West,281,0.0,0.0,58,0.00,,---,0.00,VWS V14.00,2013-03-07 11:28:00,
2013-03-07 04:33:00,39.2,25.7,29.69,WNW,283,0.0,3.0,58,0.00,,---,0.00,VWS V14.00,2013-03-07 11:33:00,
2013-03-07 04:38:00,39.5,26.0,29.70,WSW,246,0.0,3.0,58,0.00,,---,0.00,VWS V14.00,2013-03-07 11:38:00,
2013-03-07 04:43:00,38.8,25.7,29.69,NW,304,5.0,7.0,59,0.00,,---,0.00,VWS V14.00,2013-03-07 11:43:00,
2013-03-07 04:48:00,39.7,26.1,29.70,WNW,303,0.0,3.0,58,0.00,,---,0.00,VWS V14.00,2013-03-07 11:48:00,
2013-03-07 04:53:00,40.4,26.0,29.70,NW,304,3.0,3.0,56,0.00,,---,0.00,VWS V14.00,2013-03-07 11:53:00,
2013-03-07 04:59:00,40.0,26.0,29.70,NW,317,0.0,1.0,57,0.00,,---,0.00,VWS V14.00,2013-03-07 11:59:00,
2013-03-07 05:04:00,39.9,25.9,29.70,NW,318,0.0,1.0,57,0.00,,---,0.00,VWS V14.00,2013-03-07 12:04:00,
2013-03-07 05:09:00,39.1,25.6,29.70,NW,318,0.0,1.0,58,0.00,,---,0.00,VWS V14.00,2013-03-07 12:09:00,
2013-03-07 05:14:00,38.2,25.1,29.70,NW,317,5.0,6.0,59,0.00,,---,0.00,VWS V14.00,2013-03-07 12:14:00,
2013-03-07 05:19:00,37.7,25.9,29.71,NW,326,0.0,6.0,62,0.00,,---,0.00,VWS V14.00,2013-03-07 12:19:00,
2013-03-07 05:24:00,38.6,25.9,29.70,NW,321,3.0,6.0,60,0.00,,---,0.00,VWS V14.00,2013-03-07 12:24:00,
2013-03-07 05:29:00,39.0,25.9,29.70,North,350,0.0,5.0,59,0.00,,---,0.00,VWS V14.00,2013-03-07 12:29:00,
2013-03-07 05:35:00,38.4,25.3,29.71,North,350,0.0,5.0,59,0.00,,---,0.00,VWS V14.00,2013-03-07 12:35:00,
2013-03-07 05:40:00,38.7,26.0,29.71,NNW,329,4.0,6.0,60,0.00,,---,0.00,VWS V14.00,2013-03-07 12:40:00,
2013-03-07 05:45:00,38.8,25.3,29.71,NNW,329,2.0,6.0,58,0.00,,---,0.00,VWS V14.00,2013-03-07 12:45:00,
2013-03-07 05:50:00,38.9,25.4,29.71,NNW,333,0.0,5.0,58,0.00,,---,0.00,VWS V14.00,2013-03-07 12:50:00,
2013-03-07 05:55:00,38.4,25.3,29.72,NNW,333,5.0,5.0,59,0.00,,---,0.00,VWS V14.00,2013-03-07 12:55:00,
2013-03-07 06:00:00,38.3,25.6,29.72,NNW,333,0.0,5.0,60,0.00,,---,0.00,VWS V14.00,2013-03-07 13:00:00,
2013-03-07 06:06:00,36.8,25.0,29.72,NNW,333,3.0,4.0,62,0.00,,---,0.00,VWS V14.00,2013-03-07 13:06:00,
2013-03-07 06:11:00,37.8,26.0,29.72,NNW,333,0.0,5.0,62,0.00,,---,0.00,VWS V14.00,2013-03-07 13:11:00,
2013-03-07 06:16:00,38.4,25.3,29.72,NNW,333,0.0,0.0,59,0.00,,---,0.00,VWS V14.00,2013-03-07 13:16:00,
2013-03-07 06:22:00,37.7,25.1,29.72,NNW,333,0.0,2.0,60,0.00,,---,0.00,VWS V14.00,2013-03-07 13:22:00,
2013-03-07 06:27:00,37.6,25.4,29.73,NNW,333,2.0,2.0,61,0.00,,---,0.00,VWS V14.00,2013-03-07 13:27:00,
2013-03-07 06:32:00,37.7,25.1,29.73,NNW,335,0.0,3.0,60,0.00,,---,0.00,VWS V14.00,2013-03-07 13:32:00,
2013-03-07 06:38:00,37.5,25.3,29.73,NNW,335,0.0,0.0,61,0.00,,---,0.00,VWS V14.00,2013-03-07 13:38:00,
2013-03-07 06:43:00,38.0,25.8,29.73,NNW,335,0.0,2.0,61,0.00,,---,0.00,VWS V14.00,2013-03-07 13:43:00,
2013-03-07 06:48:00,39.2,26.1,29.73,WNW,286,8.0,8.0,59,0.00,,---,0.00,VWS V14.00,2013-03-07 13:48:00,
2013-03-07 06:53:00,39.9,26.3,29.74,West,280,1.0,9.0,58,0.00,,---,0.00,VWS V14.00,2013-03-07 13:53:00,
2013-03-07 06:58:00,39.3,26.2,29.74,West,275,5.0,6.0,59,0.00,,---,0.00,VWS V14.00,2013-03-07 13:58:00,
2013-03-07 07:03:00,39.2,25.7,29.74,West,281,0.0,6.0,58,0.00,,---,0.00,VWS V14.00,2013-03-07 14:03:00,
2013-03-07 07:08:00,38.8,25.7,29.74,West,281,0.0,3.0,59,0.00,,---,0.00,VWS V14.00,2013-03-07 14:08:00,
2013-03-07 07:13:00,39.8,26.7,29.75,North,355,5.0,7.0,59,0.00,,---,0.00,VWS V14.00,2013-03-07 14:13:00,
2013-03-07 07:19:00,39.7,26.6,29.75,North,360,3.0,7.0,59,0.00,,---,0.00,VWS V14.00,2013-03-07 14:19:00,
2013-03-07 07:24:00,39.6,26.9,29.75,North,360,1.0,7.0,60,0.00,,---,0.00,VWS V14.00,2013-03-07 14:24:00,
2013-03-07 07:29:00,40.0,27.2,29.76,North,360,3.0,3.0,60,0.00,,---,0.00,VWS V14.00,2013-03-07 14:29:00,
2013-03-07 07:34:00,38.9,27.4,29.76,South,176,0.0,11.0,63,0.00,,---,0.00,VWS V14.00,2013-03-07 14:34:00,
2013-03-07 07:39:00,39.0,27.5,29.76,South,176,0.0,0.0,63,0.00,,---,0.00,VWS V14.00,2013-03-07 14:39:00,
2013-03-07 07:44:00,39.8,27.1,29.76,South,177,0.0,0.0,60,0.00,,---,0.00,VWS V14.00,2013-03-07 14:44:00,
2013-03-07 07:49:00,40.2,28.2,29.77,West,273,6.0,9.0,62,0.00,,---,0.00,VWS V14.00,2013-03-07 14:49:00,
2013-03-07 07:55:00,41.3,29.3,29.77,SSE,165,4.0,9.0,62,0.00,,---,0.00,VWS V14.00,2013-03-07 14:55:00,
2013-03-07 08:00:00,41.8,29.0,29.77,North,360,4.0,6.0,60,0.00,,---,0.00,VWS V14.00,2013-03-07 15:00:00,
2013-03-07 08:05:00,43.5,28.0,29.77,North,5,0.0,6.0,54,0.00,,---,0.00,VWS V14.00,2013-03-07 15:05:00,
2013-03-07 08:10:00,44.5,30.2,29.77,North,5,0.0,0.0,57,0.00,,---,0.00,VWS V14.00,2013-03-07 15:10:00,
2013-03-07 08:15:00,44.7,29.1,29.77,North,5,0.0,1.0,54,0.00,,---,0.00,VWS V14.00,2013-03-07 15:15:00,
2013-03-07 08:20:00,44.9,27.4,29.77,North,355,3.0,5.0,50,0.00,,---,0.00,VWS V14.00,2013-03-07 15:20:00,
2013-03-07 08:25:00,45.5,27.5,29.77,North,355,0.0,0.0,49,0.00,,---,0.00,VWS V14.00,2013-03-07 15:25:00,
2013-03-07 08:31:00,45.9,28.3,29.77,NNE,16,0.0,3.0,50,0.00,,---,0.00,VWS V14.00,2013-03-07 15:31:00,
2013-03-07 08:36:00,46.1,27.5,29.77,NNE,15,0.0,0.0,48,0.00,,---,0.00,VWS V14.00,2013-03-07 15:36:00,
2013-03-07 08:41:00,46.3,27.2,29.77,North,11,2.0,5.0,47,0.00,,---,0.00,VWS V14.00,2013-03-07 15:41:00,
2013-03-07 08:46:00,46.4,27.8,29.77,North,11,0.0,0.0,48,0.00,,---,0.00,VWS V14.00,2013-03-07 15:46:00,
2013-03-07 08:51:00,47.0,28.3,29.77,North,11,0.0,3.0,48,0.00,,---,0.00,VWS V14.00,2013-03-07 15:51:00,
2013-03-07 08:56:00,47.9,29.2,29.77,East,87,2.0,3.0,48,0.00,,---,0.00,VWS V14.00,2013-03-07 15:56:00,
2013-03-07 09:01:00,48.8,29.5,29.76,East,95,0.0,3.0,47,0.00,,---,0.00,VWS V14.00,2013-03-07 16:01:00,
2013-03-07 09:06:00,49.4,29.0,29.76,East,88,0.0,2.0,45,0.00,,---,0.00,VWS V14.00,2013-03-07 16:06:00,
2013-03-07 09:12:00,49.9,29.4,29.76,East,81,4.0,4.0,45,0.00,,---,0.00,VWS V14.00,2013-03-07 16:12:00,
2013-03-07 09:17:00,50.1,29.0,29.76,NNE,26,2.0,7.0,44,0.00,,---,0.00,VWS V14.00,2013-03-07 16:17:00,
2013-03-07 09:22:00,50.3,28.7,29.76,NE,55,5.0,7.0,43,0.00,,---,0.00,VWS V14.00,2013-03-07 16:22:00,
2013-03-07 09:27:00,50.6,29.0,29.76,NE,51,3.0,4.0,43,0.00,,---,0.00,VWS V14.00,2013-03-07 16:27:00,
2013-03-07 09:32:00,50.8,28.5,29.76,NE,56,3.0,4.0,42,0.00,,---,0.00,VWS V14.00,2013-03-07 16:32:00,
2013-03-07 09:37:00,51.4,27.9,29.76,ENE,67,1.0,4.0,40,0.00,,---,0.00,VWS V14.00,2013-03-07 16:37:00,
2013-03-07 09:42:00,51.8,29.5,29.75,ENE,61,5.0,5.0,42,0.00,,---,0.00,VWS V14.00,2013-03-07 16:42:00,
2013-03-07 09:48:00,51.9,29.0,29.75,NE,53,5.0,6.0,41,0.00,,---,0.00,VWS V14.00,2013-03-07 16:48:00,
2013-03-07 09:53:00,52.0,29.6,29.76,East,99,2.0,6.0,42,0.00,,---,0.00,VWS V14.00,2013-03-07 16:53:00,
2013-03-07 09:58:00,52.2,28.6,29.76,ENE,77,0.0,5.0,40,0.00,,---,0.00,VWS V14.00,2013-03-07 16:58:00,
2013-03-07 10:03:00,52.3,29.9,29.75,ENE,61,3.0,5.0,42,0.00,,---,0.00,VWS V14.00,2013-03-07 17:03:00,
2013-03-07 10:08:00,52.8,29.8,29.75,East,96,0.0,5.0,41,0.00,,---,0.00,VWS V14.00,2013-03-07 17:08:00,
2013-03-07 10:13:00,52.9,29.9,29.75,SE,126,2.0,7.0,41,0.00,,---,0.00,VWS V14.00,2013-03-07 17:13:00,
2013-03-07 10:18:00,52.6,30.2,29.75,East,90,0.0,2.0,42,0.00,,---,0.00,VWS V14.00,2013-03-07 17:18:00,
2013-03-07 10:23:00,52.8,29.8,29.75,NE,42,0.0,6.0,41,0.00,,---,0.00,VWS V14.00,2013-03-07 17:23:00,
2013-03-07 10:28:00,53.5,30.4,29.75,NE,43,7.0,7.0,41,0.00,,---,0.00,VWS V14.00,2013-03-07 17:28:00,
2013-03-07 10:33:00,53.4,29.7,29.75,NE,56,0.0,7.0,40,0.00,,---,0.00,VWS V14.00,2013-03-07 17:33:00,
2013-03-07 10:39:00,53.5,30.4,29.75,ENE,57,3.0,5.0,41,0.00,,---,0.00,VWS V14.00,2013-03-07 17:39:00,
2013-03-07 10:44:00,53.9,30.8,29.74,NE,36,4.0,8.0,41,0.00,,---,0.00,VWS V14.00,2013-03-07 17:44:00,
2013-03-07 10:49:00,54.1,30.3,29.75,ENE,60,1.0,7.0,40,0.00,,---,0.00,VWS V14.00,2013-03-07 17:49:00,
2013-03-07 10:54:00,54.0,30.2,29.75,NE,46,1.0,7.0,40,0.00,,---,0.00,VWS V14.00,2013-03-07 17:54:00,
2013-03-07 10:59:00,54.5,29.4,29.74,NE,36,0.0,7.0,38,0.00,,---,0.00,VWS V14.00,2013-03-07 17:59:00,
2013-03-07 11:04:00,54.6,27.5,29.74,ENE,58,0.0,8.0,35,0.00,,---,0.00,VWS V14.00,2013-03-07 18:04:00,
2013-03-07 11:10:00,55.3,27.4,29.74,NE,44,0.0,8.0,34,0.00,,---,0.00,VWS V14.00,2013-03-07 18:10:00,
2013-03-07 11:15:00,55.3,27.4,29.74,ESE,121,2.0,8.0,34,0.00,,---,0.00,VWS V14.00,2013-03-07 18:15:00,
2013-03-07 11:20:00,55.7,27.8,29.73,East,87,0.0,6.0,34,0.00,,---,0.00,VWS V14.00,2013-03-07 18:20:00,
2013-03-07 11:25:00,55.5,27.6,29.73,ESE,115,0.0,8.0,34,0.00,,---,0.00,VWS V14.00,2013-03-07 18:25:00,
2013-03-07 11:30:00,54.8,27.7,29.73,ENE,71,1.0,6.0,35,0.00,,---,0.00,VWS V14.00,2013-03-07 18:30:00,
2013-03-07 11:35:00,54.9,29.1,29.73,ESE,105,6.0,8.0,37,0.00,,---,0.00,VWS V14.00,2013-03-07 18:35:00,
2013-03-07 11:40:00,54.4,30.6,29.73,SSE,147,7.0,11.0,40,0.00,,---,0.00,VWS V14.00,2013-03-07 18:40:00,
2013-03-07 11:46:00,53.8,31.9,29.73,SSE,155,13.0,13.0,43,0.00,,---,0.00,VWS V14.00,2013-03-07 18:46:00,
2013-03-07 11:51:00,53.2,29.5,29.73,ESE,122,13.0,14.0,40,0.00,,---,0.00,VWS V14.00,2013-03-07 18:51:00,
2013-03-07 11:56:00,52.9,28.0,29.73,South,178,7.0,11.0,38,0.00,,---,0.00,VWS V14.00,2013-03-07 18:56:00,
2013-03-07 12:01:00,53.1,26.9,29.73,SSE,159,8.0,11.0,36,0.00,,---,0.00,VWS V14.00,2013-03-07 19:01:00,
2013-03-07 12:06:00,53.0,27.4,29.73,SSE,165,2.0,9.0,37,0.00,,---,0.00,VWS V14.00,2013-03-07 19:06:00,
2013-03-07 12:11:00,53.0,28.1,29.72,SSE,168,9.0,11.0,38,0.00,,---,0.00,VWS V14.00,2013-03-07 19:11:00,
2013-03-07 12:17:00,53.6,28.0,29.72,SSE,166,9.0,11.0,37,0.00,,---,0.00,VWS V14.00,2013-03-07 19:17:00,
2013-03-07 12:22:00,53.8,29.4,29.72,SE,140,10.0,13.0,39,0.00,,---,0.00,VWS V14.00,2013-03-07 19:22:00,
2013-03-07 12:27:00,53.6,33.3,29.72,SE,135,7.0,12.0,46,0.00,,---,0.00,VWS V14.00,2013-03-07 19:27:00,
2013-03-07 12:32:00,53.0,33.3,29.72,SE,142,4.0,12.0,47,0.00,,---,0.00,VWS V14.00,2013-03-07 19:32:00,
2013-03-07 12:37:00,53.2,34.0,29.72,SE,127,7.0,11.0,48,0.00,,---,0.00,VWS V14.00,2013-03-07 19:37:00,
2013-03-07 12:43:00,52.8,33.7,29.71,SE,137,7.0,14.0,48,0.00,,---,0.00,VWS V14.00,2013-03-07 19:43:00,
2013-03-07 12:48:00,52.7,33.0,29.71,South,180,8.0,12.0,47,0.00,,---,0.00,VWS V14.00,2013-03-07 19:48:00,
2013-03-07 12:53:00,53.4,32.6,29.71,ESE,111,8.0,12.0,45,0.00,,---,0.00,VWS V14.00,2013-03-07 19:53:00,
2013-03-07 12:58:00,54.0,32.0,29.70,ESE,116,5.0,5.0,43,0.00,,---,0.00,VWS V14.00,2013-03-07 19:58:00,
2013-03-07 13:03:00,54.3,31.7,29.69,South,188,4.0,8.0,42,0.00,,---,0.00,VWS V14.00,2013-03-07 20:03:00,
2013-03-07 13:08:00,54.6,30.2,29.69,SSE,147,11.0,11.0,39,0.00,,---,0.00,VWS V14.00,2013-03-07 20:08:00,
2013-03-07 13:13:00,55.1,28.0,29.69,SSE,150,5.0,15.0,35,0.00,,---,0.00,VWS V14.00,2013-03-07 20:13:00,
2013-03-07 13:18:00,55.0,27.9,29.69,South,182,5.0,10.0,35,0.00,,---,0.00,VWS V14.00,2013-03-07 20:18:00,
2013-03-07 13:24:00,55.3,28.1,29.69,SSE,157,7.0,11.0,35,0.00,,---,0.00,VWS V14.00,2013-03-07 20:24:00,
2013-03-07 13:29:00,55.3,28.1,29.68,SW,225,0.0,5.0,35,0.00,,---,0.00,VWS V14.00,2013-03-07 20:29:00,
2013-03-07 13:34:00,55.8,27.9,29.68,SW,222,2.0,10.0,34,0.00,,---,0.00,VWS V14.00,2013-03-07 20:34:00,
2013-03-07 13:39:00,56.5,27.8,29.68,South,174,9.0,10.0,33,0.00,,---,0.00,VWS V14.00,2013-03-07 20:39:00,
2013-03-07 13:44:00,56.3,29.0,29.68,SSE,164,7.0,14.0,35,0.00,,---,0.00,VWS V14.00,2013-03-07 20:44:00,
2013-03-07 13:49:00,56.1,28.8,29.68,SW,214,0.0,8.0,35,0.00,,---,0.00,VWS V14.00,2013-03-07 20:49:00,
2013-03-07 13:55:00,56.3,29.0,29.68,SSW,192,4.0,8.0,35,0.00,,---,0.00,VWS V14.00,2013-03-07 20:55:00,
2013-03-07 14:00:00,56.2,28.9,29.67,SSW,203,3.0,6.0,35,0.00,,---,0.00,VWS V14.00,2013-03-07 21:00:00,
2013-03-07 14:05:00,56.5,29.2,29.67,South,189,4.0,8.0,35,0.00,,---,0.00,VWS V14.00,2013-03-07 21:05:00,
2013-03-07 14:10:00,56.6,28.6,29.67,South,171,6.0,8.0,34,0.00,,---,0.00,VWS V14.00,2013-03-07 21:10:00,
2013-03-07 14:16:00,56.9,28.8,29.67,South,181,2.0,6.0,34,0.00,,---,0.00,VWS V14.00,2013-03-07 21:16:00,
2013-03-07 14:21:00,56.8,28.8,29.67,South,184,3.0,6.0,34,0.00,,---,0.00,VWS V14.00,2013-03-07 21:21:00,
2013-03-07 14:26:00,57.2,28.4,29.67,South,176,0.0,0.0,33,0.00,,---,0.00,VWS V14.00,2013-03-07 21:26:00,
2013-03-07 14:31:00,57.7,28.8,29.67,SSE,151,0.0,6.0,33,0.00,,---,0.00,VWS V14.00,2013-03-07 21:31:00,
2013-03-07 14:37:00,58.4,29.4,29.67,NNE,28,3.0,4.0,33,0.00,,---,0.00,VWS V14.00,2013-03-07 21:37:00,
2013-03-07 14:42:00,58.9,29.1,29.67,NNE,30,0.0,4.0,32,0.00,,---,0.00,VWS V14.00,2013-03-07 21:42:00,
2013-03-07 14:47:00,58.8,29.0,29.67,South,189,4.0,10.0,32,0.00,,---,0.00,VWS V14.00,2013-03-07 21:47:00,
2013-03-07 14:52:00,58.8,30.5,29.67,NE,55,4.0,10.0,34,0.00,,---,0.00,VWS V14.00,2013-03-07 21:52:00,
2013-03-07 14:58:00,59.0,30.7,29.67,NNE,16,5.0,10.0,34,0.00,,---,0.00,VWS V14.00,2013-03-07 21:58:00,
2013-03-07 15:03:00,59.1,30.8,29.67,NE,38,6.0,10.0,34,0.00,,---,0.00,VWS V14.00,2013-03-07 22:03:00,
2013-03-07 15:08:00,59.3,31.0,29.67,East,88,0.0,6.0,34,0.00,,---,0.00,VWS V14.00,2013-03-07 22:08:00,
2013-03-07 15:13:00,59.3,30.2,29.67,SE,129,0.0,6.0,33,0.00,,---,0.00,VWS V14.00,2013-03-07 22:13:00,
2013-03-07 15:18:00,59.6,30.5,29.67,NNE,12,2.0,7.0,33,0.00,,---,0.00,VWS V14.00,2013-03-07 22:18:00,
2013-03-07 15:24:00,59.5,31.1,29.67,ENE,65,6.0,9.0,34,0.00,,---,0.00,VWS V14.00,2013-03-07 22:24:00,
2013-03-07 15:29:00,59.4,31.0,29.66,NE,34,5.0,5.0,34,0.00,,---,0.00,VWS V14.00,2013-03-07 22:29:00,
2013-03-07 15:34:00,59.3,30.2,29.67,NE,42,1.0,6.0,33,0.00,,---,0.00,VWS V14.00,2013-03-07 22:34:00,
2013-03-07 15:39:00,59.4,29.6,29.67,NNW,327,0.0,7.0,32,0.00,,---,0.00,VWS V14.00,2013-03-07 22:39:00,
2013-03-07 15:44:00,59.8,29.1,29.66,North,355,0.0,7.0,31,0.00,,---,0.00,VWS V14.00,2013-03-07 22:44:00,
2013-03-07 15:49:00,60.1,27.8,29.66,NE,49,0.0,7.0,29,0.00,,---,0.00,VWS V14.00,2013-03-07 22:49:00,
2013-03-07 15:55:00,60.3,27.1,29.66,WSW,238,3.0,7.0,28,0.00,,---,0.00,VWS V14.00,2013-03-07 22:55:00,
2013-03-07 16:00:00,60.0,26.0,29.66,ESE,112,1.0,6.0,27,0.00,,---,0.00,VWS V14.00,2013-03-07 23:00:00,
2013-03-07 16:05:00,59.6,26.5,29.66,SE,126,9.0,11.0,28,0.00,,---,0.00,VWS V14.00,2013-03-07 23:05:00,
2013-03-07 16:10:00,59.1,26.0,29.66,SE,130,12.0,15.0,28,0.00,,---,0.00,VWS V14.00,2013-03-07 23:10:00,
2013-03-07 16:15:00,58.7,23.9,29.66,SE,143,7.0,15.0,26,0.00,,---,0.00,VWS V14.00,2013-03-07 23:15:00,
2013-03-07 16:20:00,58.4,23.7,29.66,SE,144,2.0,12.0,26,0.00,,---,0.00,VWS V14.00,2013-03-07 23:20:00,
2013-03-07 16:25:00,58.1,24.3,29.66,SE,138,5.0,6.0,27,0.00,,---,0.00,VWS V14.00,2013-03-07 23:25:00,
2013-03-07 16:30:00,57.8,23.2,29.66,ESE,119,9.0,12.0,26,0.00,,---,0.00,VWS V14.00,2013-03-07 23:30:00,
2013-03-07 16:35:00,57.6,23.9,29.66,ESE,121,8.0,9.0,27,0.00,,---,0.00,VWS V14.00,2013-03-07 23:35:00,
2013-03-07 16:40:00,57.5,22.9,29.66,SE,128,7.0,13.0,26,0.00,,---,0.00,VWS V14.00,2013-03-07 23:40:00,
2013-03-07 16:46:00,57.3,22.7,29.66,SE,140,5.0,10.0,26,0.00,,---,0.00,VWS V14.00,2013-03-07 23:46:00,
2013-03-07 16:51:00,57.3,22.7,29.66,SSE,153,8.0,13.0,26,0.00,,---,0.00,VWS V14.00,2013-03-07 23:51:00,
2013-03-07 16:56:00,57.1,22.6,29.66,SE,131,1.0,8.0,26,0.00,,---,0.00,VWS V14.00,2013-03-07 23:56:00,
2013-03-07 17:01:00,56.8,23.2,29.67,SE,141,0.0,8.0,27,0.00,,---,0.00,VWS V14.00,2013-03-08 00:01:00,
2013-03-07 17:06:00,56.6,23.0,29.66,SSE,147,0.0,5.0,27,0.00,,---,0.00,VWS V14.00,2013-03-08 00:06:00,
2013-03-07 17:11:00,56.6,23.9,29.67,SE,146,0.0,5.0,28,0.00,,---,0.00,VWS V14.00,2013-03-08 00:11:00,
2013-03-07 17:16:00,56.4,24.6,29.67,SE,146,1.0,4.0,29,0.00,,---,0.00,VWS V14.00,2013-03-08 00:16:00,
2013-03-07 17:22:00,56.2,24.4,29.67,SSE,148,1.0,4.0,29,0.00,,---,0.00,VWS V14.00,2013-03-08 00:22:00,
2013-03-07 17:27:00,56.0,25.0,29.67,SSE,148,0.0,0.0,30,0.00,,---,0.00,VWS V14.00,2013-03-08 00:27:00,
2013-03-07 17:32:00,55.8,26.4,29.67,SSE,149,0.0,2.0,32,0.00,,---,0.00,VWS V14.00,2013-03-08 00:32:00,
2013-03-07 17:37:00,55.3,27.4,29.67,NNE,13,0.0,4.0,34,0.00,,---,0.00,VWS V14.00,2013-03-08 00:37:00,
2013-03-07 17:42:00,54.7,29.0,29.67,NNE,13,0.0,4.0,37,0.00,,---,0.00,VWS V14.00,2013-03-08 00:42:00,
2013-03-07 17:48:00,54.2,29.2,29.67,North,351,3.0,8.0,38,0.00,,---,0.00,VWS V14.00,2013-03-08 00:48:00,
2013-03-07 17:53:00,53.7,29.4,29.68,North,351,0.0,8.0,39,0.00,,---,0.00,VWS V14.00,2013-03-08 00:53:00,
2013-03-07 17:58:00,53.5,29.2,29.68,North,351,1.0,3.0,39,0.00,,---,0.00,VWS V14.00,2013-03-08 00:58:00,
2013-03-07 18:03:00,53.2,28.9,29.67,NNW,337,4.0,5.0,39,0.00,,---,0.00,VWS V14.00,2013-03-08 01:03:00,
2013-03-07 18:08:00,53.2,28.3,29.67,NNW,337,0.0,4.0,38,0.00,,---,0.00,VWS V14.00,2013-03-08 01:08:00,
2013-03-07 18:13:00,53.4,27.8,29.68,NNW,337,0.0,4.0,37,0.00,,---,0.00,VWS V14.00,2013-03-08 01:13:00,
2013-03-07 18:18:00,53.2,28.3,29.67,NNW,337,0.0,2.0,38,0.00,,---,0.00,VWS V14.00,2013-03-08 01:18:00,
2013-03-07 18:23:00,53.0,27.4,29.68,NNW,337,0.0,3.0,37,0.00,,---,0.00,VWS V14.00,2013-03-08 01:23:00,
2013-03-07 18:28:00,53.1,27.5,29.68,NNW,337,0.0,1.0,37,0.00,,---,0.00,VWS V14.00,2013-03-08 01:28:00,
2013-03-07 18:33:00,53.1,27.5,29.68,NNW,337,0.0,3.0,37,0.00,,---,0.00,VWS V14.00,2013-03-08 01:33:00,
2013-03-07 18:39:00,52.9,27.4,29.68,NNW,337,0.0,3.0,37,0.00,,---,0.00,VWS V14.00,2013-03-08 01:39:00,
2013-03-07 18:44:00,52.6,27.7,29.68,NNW,339,2.0,4.0,38,0.00,,---,0.00,VWS V14.00,2013-03-08 01:44:00,
2013-03-07 18:49:00,52.4,27.6,29.69,NNW,338,4.0,5.0,38,0.00,,---,0.00,VWS V14.00,2013-03-08 01:49:00,
2013-03-07 18:54:00,52.4,26.9,29.69,NNW,333,4.0,5.0,37,0.00,,---,0.00,VWS V14.00,2013-03-08 01:54:00,
2013-03-07 18:59:00,52.3,27.5,29.69,North,350,1.0,5.0,38,0.00,,---,0.00,VWS V14.00,2013-03-08 01:59:00,
2013-03-07 19:04:00,51.3,27.2,29.69,North,350,0.0,5.0,39,0.00,,---,0.00,VWS V14.00,2013-03-08 02:04:00,
2013-03-07 19:10:00,50.9,25.6,29.69,North,351,0.0,4.0,37,0.00,,---,0.00,VWS V14.00,2013-03-08 02:10:00,
2013-03-07 19:15:00,50.8,26.1,29.69,North,351,0.0,4.0,38,0.00,,---,0.00,VWS V14.00,2013-03-08 02:15:00,
2013-03-07 19:20:00,51.0,26.9,29.69,North,351,0.0,2.0,39,0.00,,---,0.00,VWS V14.00,2013-03-08 02:20:00,
2013-03-07 19:25:00,50.7,26.0,29.69,NNW,344,0.0,5.0,38,0.00,,---,0.00,VWS V14.00,2013-03-08 02:25:00,
2013-03-07 19:30:00,50.0,26.0,29.70,NNW,344,0.0,2.0,39,0.00,,---,0.00,VWS V14.00,2013-03-08 02:30:00,
2013-03-07 19:35:00,49.9,26.0,29.70,NNW,334,5.0,6.0,39,0.00,,---,0.00,VWS V14.00,2013-03-08 02:35:00,
2013-03-07 19:40:00,49.1,26.4,29.70,NNE,13,1.0,6.0,41,0.00,,---,0.00,VWS V14.00,2013-03-08 02:40:00,
2013-03-07 19:45:00,48.9,25.7,29.70,NW,319,6.0,6.0,40,0.00,,---,0.00,VWS V14.00,2013-03-08 02:45:00,
2013-03-07 19:50:00,49.2,25.9,29.71,NNW,348,4.0,6.0,40,0.00,,---,0.00,VWS V14.00,2013-03-08 02:50:00,
2013-03-07 19:56:00,48.1,25.5,29.70,NW,325,5.0,5.0,41,0.00,,---,0.00,VWS V14.00,2013-03-08 02:56:00,
2013-03-07 20:01:00,49.0,25.8,29.71,North,5,4.0,6.0,40,0.00,,---,0.00,VWS V14.00,2013-03-08 03:01:00,
2013-03-07 20:06:00,49.5,25.6,29.71,NE,53,1.0,7.0,39,0.00,,---,0.00,VWS V14.00,2013-03-08 03:06:00,
2013-03-07 20:11:00,49.7,25.8,29.71,NNE,12,3.0,7.0,39,0.00,,---,0.00,VWS V14.00,2013-03-08 03:11:00,
2013-03-07 20:16:00,49.6,25.7,29.71,North,351,1.0,5.0,39,0.00,,---,0.00,VWS V14.00,2013-03-08 03:16:00,
2013-03-07 20:21:00,49.7,25.8,29.71,North,360,4.0,6.0,39,0.00,,---,0.00,VWS V14.00,2013-03-08 03:21:00,
2013-03-07 20:27:00,49.5,25.6,29.71,North,350,6.0,6.0,39,0.00,,---,0.00,VWS V14.00,2013-03-08 03:27:00,
2013-03-07 20:32:00,50.3,25.7,29.71,North,360,0.0,9.0,38,0.00,,---,0.00,VWS V14.00,2013-03-08 03:32:00,
2013-03-07 20:37:00,50.6,25.3,29.71,North,351,5.0,5.0,37,0.00,,---,0.00,VWS V14.00,2013-03-08 03:37:00,
2013-03-07 20:42:00,50.7,26.0,29.71,North,5,0.0,6.0,38,0.00,,---,0.00,VWS V14.00,2013-03-08 03:42:00,
2013-03-07 20:47:00,50.1,25.5,29.71,North,5,3.0,3.0,38,0.00,,---,0.00,VWS V14.00,2013-03-08 03:47:00,
2013-03-07 20:52:00,49.1,25.8,29.71,North,360,2.0,6.0,40,0.00,,---,0.00,VWS V14.00,2013-03-08 03:52:00,
2013-03-07 20:57:00,47.4,26.0,29.71,North,355,5.0,5.0,43,0.00,,---,0.00,VWS V14.00,2013-03-08 03:57:00,
2013-03-07 21:02:00,47.2,26.4,29.71,North,5,4.0,8.0,44,0.00,,---,0.00,VWS V14.00,2013-03-08 04:02:00,
2013-03-07 21:07:00,45.9,25.8,29.71,North,5,6.0,6.0,45,0.00,,---,0.00,VWS V14.00,2013-03-08 04:07:00,
2013-03-07 21:13:00,45.3,25.8,29.71,North,360,6.0,8.0,46,0.00,,---,0.00,VWS V14.00,2013-03-08 04:13:00,
2013-03-07 21:18:00,44.3,25.9,29.71,North,5,2.0,7.0,48,0.00,,---,0.00,VWS V14.00,2013-03-08 04:18:00,
2013-03-07 21:23:00,42.9,25.6,29.71,North,355,3.0,7.0,50,0.00,,---,0.00,VWS V14.00,2013-03-08 04:23:00,
2013-03-07 21:28:00,42.4,26.5,29.71,NNW,344,3.0,6.0,53,0.00,,---,0.00,VWS V14.00,2013-03-08 04:28:00,
2013-03-07 21:33:00,44.7,26.2,29.71,NW,325,11.0,12.0,48,0.00,,---,0.00,VWS V14.00,2013-03-08 04:33:00,
2013-03-07 21:39:00,46.5,25.2,29.71,NNW,336,14.0,17.0,43,0.00,,---,0.00,VWS V14.00,2013-03-08 04:39:00,
2013-03-07 21:44:00,47.0,25.7,29.71,NNW,329,13.0,17.0,43,0.00,,---,0.00,VWS V14.00,2013-03-08 04:44:00,
2013-03-07 21:49:00,46.7,25.4,29.71,NNW,341,12.0,15.0,43,0.00,,---,0.00,VWS V14.00,2013-03-08 04:49:00,
2013-03-07 21:54:00,46.3,25.6,29.71,NNW,328,10.0,15.0,44,0.00,,---,0.00,VWS V14.00,2013-03-08 04:54:00,
2013-03-07 21:59:00,45.8,25.1,29.71,NNW,335,10.0,14.0,44,0.00,,---,0.00,VWS V14.00,2013-03-08 04:59:00,
2013-03-07 22:00:00,45.8,25.1,29.71,NNW,340,10.0,14.0,44,0.00,,---,0.00,VWS V14.00,2013-03-08 05:00:00,
2013-03-07 22:02:00,45.6,25.5,29.71,NNW,342,9.0,14.0,45,0.00,,---,0.00,VWS V14.00,2013-03-08 05:02:00,
2013-03-07 22:07:00,45.5,25.9,29.71,North,355,8.0,14.0,46,0.00,,---,0.00,VWS V14.00,2013-03-08 05:07:00,
2013-03-07 22:12:00,44.2,25.8,29.71,North,360,6.0,14.0,48,0.00,,---,0.00,VWS V14.00,2013-03-08 05:12:00,
2013-03-07 22:17:00,42.5,25.2,29.71,North,360,6.0,8.0,50,0.00,,---,0.00,VWS V14.00,2013-03-08 05:17:00,
2013-03-07 22:22:00,41.6,25.3,29.71,North,360,7.0,9.0,52,0.00,,---,0.00,VWS V14.00,2013-03-08 05:22:00,
2013-03-07 22:27:00,41.6,25.8,29.71,North,10,3.0,8.0,53,0.00,,---,0.00,VWS V14.00,2013-03-08 05:27:00,
2013-03-07 22:32:00,40.1,24.8,29.71,North,355,7.0,8.0,54,0.00,,---,0.00,VWS V14.00,2013-03-08 05:32:00,
2013-03-07 22:37:00,40.3,25.9,29.71,NNW,345,9.0,10.0,56,0.00,,---,0.00,VWS V14.00,2013-03-08 05:37:00,
2013-03-07 22:42:00,41.6,26.2,29.71,North,360,8.0,13.0,54,0.00,,---,0.00,VWS V14.00,2013-03-08 05:42:00,
2013-03-07 22:48:00,41.5,26.1,29.71,North,5,11.0,12.0,54,0.00,,---,0.00,VWS V14.00,2013-03-08 05:48:00,
2013-03-07 22:53:00,41.0,26.5,29.71,North,360,10.0,14.0,56,0.00,,---,0.00,VWS V14.00,2013-03-08 05:53:00,
2013-03-07 22:58:00,40.6,26.6,29.71,North,355,10.0,11.0,57,0.00,,---,0.00,VWS V14.00,2013-03-08 05:58:00,
2013-03-07 23:03:00,40.5,26.9,29.71,North,355,13.0,15.0,58,0.00,,---,0.00,VWS V14.00,2013-03-08 06:03:00,
2013-03-07 23:08:00,40.5,27.7,29.72,North,355,9.0,14.0,60,0.00,,---,0.00,VWS V14.00,2013-03-08 06:08:00,
2013-03-07 23:13:00,39.9,27.6,29.72,North,360,10.0,14.0,61,0.00,,---,0.00,VWS V14.00,2013-03-08 06:13:00,
2013-03-07 23:18:00,39.7,28.1,29.71,North,5,12.0,14.0,63,0.00,,---,0.00,VWS V14.00,2013-03-08 06:18:00,
2013-03-07 23:23:00,39.7,28.1,29.71,North,360,9.0,15.0,63,0.00,,---,0.00,VWS V14.00,2013-03-08 06:23:00,
2013-03-07 23:28:00,39.5,28.4,29.72,North,350,9.0,13.0,64,0.00,,---,0.00,VWS V14.00,2013-03-08 06:28:00,
2013-03-07 23:33:00,39.5,28.7,29.71,North,350,12.0,14.0,65,0.00,,---,0.00,VWS V14.00,2013-03-08 06:33:00,
2013-03-07 23:38:00,39.6,28.8,29.71,North,5,12.0,15.0,65,0.00,,---,0.00,VWS V14.00,2013-03-08 06:38:00,
2013-03-07 23:43:00,39.7,28.5,29.71,North,5,7.0,15.0,64,0.00,,---,0.00,VWS V14.00,2013-03-08 06:43:00,
2013-03-07 23:48:00,39.2,28.4,29.71,North,360,9.0,12.0,65,0.00,,---,0.00,VWS V14.00,2013-03-08 06:48:00,
2013-03-07 23:53:00,39.1,28.3,29.71,North,5,10.0,12.0,65,0.00,,---,0.00,VWS V14.00,2013-03-08 06:53:00,
2013-03-07 23:58:00,39.0,28.2,29.71,North,5,8.0,11.0,65,0.00,,---,0.00,VWS V14.00,2013-03-08 06:58:00,